Lapse_Rate
6.9 7.3 7.6 8.7 6.6 6.5 6.5 6.5 6.5 6.5 6.5 7.4 7.7 7.1 6.6 7.1 6.5 6.5 9.2 9.4 6.9 9.3 8.0 8.1 6.3 6.2 6.1 5.9 5.7 5.4 5.5 5.7 6.0 5.9 5.9 5.7 5.7 5.2 5.9 6.7 7.0 7.2 7.2 7.1 7.2 6.4 6.3 5.6 5.5
7.2 7.9 8.8 7.8 6.5 6.5 6.5 6.5 6.5 6.5 7.1 7.7 7.7 7.6 7.0 6.5 8.2 8.4 8.8 7.6 6.0 6.6 8.4 8.3 6.7 6.3 6.2 5.9 5.6 5.4 5.5 5.7 6.0 6.2 5.9 5.7 5.8 5.4 5.9 6.7 6.8 6.8 6.9 6.5 6.3 6.1 5.6 5.3 5.0
7.4 7.5 7.7 6.5 6.5 6.5 6.5 6.5 6.5 6.9 7.6 7.4 7.1 7.9 7.5 7.1 8.4 8.8 9.1 8.9 7.6 5.8 5.2 6.8 7.0 6.5 6.2 5.9 5.5 5.4 5.5 5.8 5.8 6.2 6.0 5.9 5.5 5.5 6.0 6.4 6.6 6.7 6.4 6.0 5.5 5.7 5.6 5.1 4.6
8.6 8.6 7.9 6.5 6.5 6.5 6.5 6.5 6.8 6.8 7.4 7.7 7.6 6.6 8.1 8.9 8.7 9.3 9.4 9.1 9.8 7.6 5.1 4.1 4.9 6.3 6.3 5.7 5.7 5.5 5.6 5.8 5.8 5.7 5.8 5.9 5.4 5.5 6.0 6.7 6.1 6.1 5.8 5.7 5.7 5.4 5.4 4.9 4.3
8.4 7.9 6.5 6.5 6.5 6.5 6.5 7.0 7.1 6.5 6.9 7.2 7.6 6.7 7.3 8.7 9.1 8.8 8.8 9.1 8.5 8.7 6.0 5.5 3.5 5.8 6.7 6.2 5.7 5.5 5.6 5.7 5.7 5.5 6.0 5.9 5.6 5.9 6.2 6.3 5.5 5.5 5.6 5.6 5.7 5.5 5.0 4.6 4.4
7.3 7.5 6.5 6.5 6.5 6.5 6.6 7.3 7.2 6.9 7.2 7.4 7.2 7.1 7.5 8.8 7.5 8.0 7.7 7.9 8.1 8.0 7.2 5.4 4.7 3.3 6.2 6.8 5.8 5.4 5.6 5.7 5.6 5.3 5.9 6.0 6.2 6.3 6.1 5.6 5.3 5.6 5.6 5.7 5.7 5.3 4.9 4.4 4.5
6.8 6.5 6.5 6.5 6.5 6.5 6.5 7.6 6.9 6.9 7.0 7.0 8.0 6.5 7.8 8.5 8.8 7.0 6.8 6.8 7.5 7.5 8.0 6.9 6.2 4.9 5.0 6.9 6.6 5.8 5.8 5.5 5.5 5.3 5.6 6.1 6.1 6.0 5.9 5.5 5.4 5.7 5.7 5.6 5.4 5.1 4.7 4.5 4.2
7.6 6.6 6.5 6.5 6.5 6.5 6.7 7.2 7.6 7.3 6.9 8.4 8.4 6.6 6.8 8.4 8.2 8.0 7.8 7.9 7.1 7.5 7.6 7.9 6.2 5.8 6.1 7.3 6.6 6.6 6.2 5.3 5.2 5.1 5.4 5.6 6.0 6.0 5.7 5.6 5.5 5.4 5.3 5.4 5.2 4.8 4.7 4.4 3.9
8.2 6.5 6.5 6.5 6.5 6.5 7.2 6.6 7.7 8.2 7.7 8.0 8.3 8.2 8.6 9.0 9.3 8.7 7.2 6.9 7.4 7.1 7.7 7.7 7.6 5.1 5.6 6.8 7.1 6.1 6.0 4.9 4.9 5.1 5.3 5.5 7.1 6.6 5.6 6.9 5.2 5.1 5.0 5.0 5.1 5.0 4.6 4.0 3.6
6.8 6.5 6.5 6.6 6.6 6.5 6.9 7.0 7.3 7.1 7.3 7.4 7.8 8.5 8.9 9.0 8.8 8.5 7.9 8.4 8.5 7.4 7.5 7.4 7.3 6.6 5.0 6.1 7.0 7.1 7.5 6.8 6.0 6.8 6.6 8.3 7.7 7.8 7.5 7.2 5.5 5.0 4.7 4.8 4.9 5.1 4.4 4.8 6.0
6.9 6.5 6.5 6.8 7.2 7.3 7.0 7.0 7.6 7.0 6.5 7.3 7.3 8.0 8.5 8.6 8.6 8.5 8.6 8.3 8.5 7.3 7.1 6.6 7.1 6.5 4.0 5.4 6.6 6.6 7.0 6.9 6.9 7.5 8.4 9.3 8.4 7.7 8.6 7.0 6.6 6.8 5.1 6.3 5.7 5.5 6.7 9.1 9.0
6.5 6.9 7.0 7.1 7.4 7.2 6.8 7.4 7.0 7.3 7.4 8.3 8.3 8.4 8.4 8.3 8.3 8.3 8.4 7.0 6.4 6.7 6.5 6.5 7.0 8.3 5.3 5.2 5.7 6.2 6.6 6.8 6.6 7.0 8.4 9.1 8.0 7.4 8.4 7.7 8.7 9.2 7.6 9.4 8.8 8.7 8.8 7.9 8.2
6.5 6.7 7.2 7.4 7.4 7.4 7.6 7.0 6.8 7.3 8.1 8.4 8.4 8.4 8.3 8.4 8.4 8.6 8.6 7.8 6.6 6.1 6.0 6.4 6.3 6.7 6.5 4.5 3.6 7.0 6.5 7.3 7.0 6.8 7.5 8.3 7.4 7.7 8.9 9.0 9.5 9.5 8.8 9.5 9.7 9.6 9.1 8.8 9.1
7.0 7.0 7.1 7.3 7.3 7.3 6.7 6.8 7.1 7.3 8.1 8.0 8.1 8.2 8.3 8.4 8.5 8.6 8.6 8.6 6.5 6.2 6.1 6.1 7.4 7.5 6.9 6.8 5.4 6.5 6.2 7.2 7.5 6.9 7.2 7.7 7.4 7.4 8.9 7.5 9.7 9.6 9.3 9.4 9.5 9.7 9.7 9.8 9.3
7.2 6.5 6.5 6.7 6.9 6.6 7.2 6.5 6.5 7.6 7.9 7.7 7.8 8.1 8.2 8.4 8.6 8.6 8.7 8.8 8.1 7.2 6.6 6.4 6.6 8.1 7.8 7.7 6.8 6.8 5.7 6.6 7.7 7.1 7.8 7.3 6.9 6.8 7.4 8.3 9.5 9.5 8.3 9.3 9.5 9.6 9.6 9.9 9.6
6.5 6.5 6.5 6.5 6.7 6.9 6.8 6.5 6.5 7.7 7.7 7.4 7.7 8.0 8.1 8.3 8.6 8.8 8.9 8.9 8.9 7.0 7.0 6.4 7.1 6.8 9.3 8.4 7.8 7.0 6.5 6.5 7.4 7.2 7.5 7.4 6.6 6.5 6.3 8.3 8.6 9.3 8.2 8.9 9.7 9.6 9.1 9.4 9.2
6.5 6.5 6.5 6.5 6.7 6.5 6.5 6.5 6.6 7.6 7.5 7.3 7.7 7.9 8.0 8.2 8.5 8.9 9.0 9.1 9.1 7.3 6.8 6.5 6.2 7.3 7.8 7.6 9.0 8.2 7.4 7.2 6.8 7.2 6.8 7.0 6.7 6.2 5.9 7.3 8.5 5.9 7.8 8.9 8.9 9.0 8.5 8.6 8.9
6.5 6.5 6.5 6.5 6.5 6.5 6.5 6.5 6.5 7.2 7.2 7.3 7.6 7.8 7.9 7.9 8.2 8.7 8.8 9.1 9.2 8.9 7.3 6.7 6.6 6.6 8.7 7.9 7.6 8.5 7.6 5.6 7.8 6.9 6.8 6.8 6.7 5.9 6.1 7.7 7.4 6.1 6.2 7.0 7.9 7.7 7.2 8.6 9.4
6.5 6.5 6.5 6.5 6.5 6.5 6.5 6.5 6.5 6.9 7.2 7.1 7.4 7.6 7.5 7.6 8.6 8.7 8.8 8.9 9.0 9.1 8.6 6.4 6.5 6.4 6.9 8.5 8.1 7.5 7.8 8.0 5.3 6.7 6.9 7.1 7.0 5.8 6.3 7.4 6.2 5.0 6.1 6.7 6.6 7.2 6.1 7.2 9.5
6.5 6.5 6.5 6.5 6.5 6.5 6.5 6.5 6.5 6.5 6.7 7.2 7.1 7.3 7.3 7.6 7.8 8.1 8.5 8.7 8.8 8.9 7.2 8.2 6.6 6.3 7.0 7.1 7.9 8.6 7.5 6.4 6.8 5.2 7.2 6.7 6.6 5.6 6.4 6.7 5.6 4.8 5.8 7.5 6.9 7.0 6.8 7.8 8.6
6.5 6.5 6.5 6.5 6.5 6.5 6.5 6.5 6.5 6.5 7.0 7.4 7.7 7.6 7.5 7.5 7.3 7.5 7.4 8.5 8.2 8.7 8.8 8.6 7.2 6.7 6.7 6.6 7.5 8.9 6.4 6.5 6.3 6.0 5.6 5.8 6.7 5.6 5.0 5.8 6.4 5.2 5.3 6.5 6.6 6.2 6.3 7.5 7.4
6.5 6.5 6.5 6.5 6.5 6.5 6.5 6.5 6.5 6.5 6.5 6.5 7.2 7.3 7.3 7.3 7.4 6.9 5.7 8.4 8.3 8.5 8.7 8.6 8.4 7.1 6.7 7.0 7.9 8.3 7.3 6.4 5.9 6.1 5.1 5.9 6.5 6.3 5.7 5.4 6.0 5.5 6.0 5.7 6.0 6.2 6.6 7.4 7.0
6.5 6.5 6.5 6.5 6.5 6.5 6.5 6.5 6.5 6.5 6.5 6.5 6.7 7.3 7.4 7.4 7.3 6.8 6.9 6.3 8.4 8.4 8.3 8.6 8.9 8.9 8.9 8.9 8.6 7.3 8.0 8.0 7.0 5.6 5.7 5.8 6.9 6.7 5.9 5.2 5.3 6.0 5.6 5.1 5.8 5.7 6.0 6.3 8.3
6.5 6.5 6.5 6.5 6.5 6.5 6.5 6.5 6.5 6.5 6.5 6.5 6.8 7.1 7.5 7.4 7.1 6.5 5.6 5.3 5.2 7.1 7.9 7.9 7.7 8.8 8.7 7.4 8.5 8.2 7.2 7.2 6.4 6.3 5.3 5.2 5.5 5.9 5.2 5.2 5.6 5.8 5.6 4.8 5.0 6.0 5.8 6.2 7.1
6.5 6.5 6.5 6.5 6.5 6.5 6.5 6.5 6.5 6.5 6.5 6.5 6.6 7.1 7.4 7.3 7.0 6.3 5.9 4.4 4.0 4.2 7.1 7.7 8.1 8.3 7.4 6.7 7.5 6.3 6.8 5.7 5.8 5.7 5.8 5.6 5.4 5.3 5.0 4.8 5.3 5.1 5.4 5.0 4.6 5.4 5.3 6.2 6.2
6.5 6.5 6.5 6.5 6.5 6.5 6.5 6.5 6.5 6.5 6.9 7.3 7.3 7.2 7.3 7.1 6.6 5.4 4.9 3.8 3.2 4.0 6.1 6.6 6.2 4.8 5.3 6.3 7.0 6.3 7.0 6.8 6.8 7.6 6.0 5.3 5.5 5.4 5.3 4.3 4.7 4.4 4.2 4.0 3.8 4.9 5.6 5.7 5.7
6.5 6.5 6.5 6.5 6.5 6.5 6.5 6.5 6.5 6.5 6.5 6.9 7.1 7.1 7.0 7.1 6.1 5.2 4.1 4.5 3.8 2.9 3.2 5.0 5.7 5.5 5.4 6.0 7.4 7.4 6.5 5.3 5.1 5.1 5.7 6.2 4.7 4.6 4.5 4.5 4.1 3.8 3.9 3.6 3.8 4.7 5.2 5.6 6.0
6.5 6.5 6.5 6.5 6.5 6.5 6.5 6.5 6.5 6.5 6.5 6.5 6.6 6.9 7.2 7.0 6.4 5.7 4.2 3.2 2.8 2.1 2.2 3.2 4.5 5.4 5.6 5.7 6.3 6.7 7.0 6.4 5.7 5.3 4.8 6.0 5.3 4.2 4.0 4.2 4.0 3.5 3.4 3.7 3.6 5.2 5.7 5.2 5.8
6.5 6.5 6.5 6.5 6.5 6.5 6.5 6.5 6.5 6.5 6.5 6.5 6.7 7.3 7.5 7.5 7.4 6.3 5.4 5.0 2.7 2.3 2.2 2.7 3.7 5.3 4.8 5.0 5.0 5.3 6.0 6.7 6.4 5.0 5.0 5.3 5.1 4.8 4.9 4.9 4.7 4.2 3.6 3.9 4.4 4.9 5.6 5.9 5.8
6.5 6.5 6.5 6.5 6.5 6.5 6.5 6.5 6.5 6.5 6.5 6.9 7.0 7.4 7.7 7.9 8.0 7.5 7.4 7.3 4.2 2.8 2.2 2.6 3.1 5.1 5.2 4.8 4.6 4.4 4.2 4.1 3.8 4.0 4.8 4.3 4.7 4.3 4.5 4.4 4.0 3.8 4.2 4.3 5.0 5.2 4.8 5.5 5.4
Wind_Speed
4 4 3 3 5 4 7 6 1 5 4 1 3 6 6 4 4 1 3 14 15 11 5 14 18 19 20 21 21 22 22 21 20 20 20 19 20 19 16 19 17 15 15 15 17 19 21 22 21
2 1 2 2 4 7 7 6 8 3 3 4 4 8 6 7 1 3 2 16 13 13 10 10 20 21 20 21 22 22 23 22 21 20 19 20 20 19 17 16 15 15 16 18 19 19 20 20 21
2 2 3 3 3 7 2 2 2 2 2 2 2 3 4 1 2 3 6 10 12 12 14 10 19 22 22 21 23 23 23 22 22 20 19 18 19 19 17 15 14 15 18 19 20 18 18 19 19
2 3 2 4 5 1 2 3 3 2 3 1 3 6 3 1 1 5 5 11 12 11 12 14 10 22 24 23 22 23 23 22 22 20 19 19 20 20 17 15 16 18 19 21 20 20 17 16 17
2 2 3 3 2 2 4 1 1 1 1 1 4 5 5 1 3 3 7 10 12 10 13 12 11 12 24 24 22 23 23 23 22 21 21 21 21 19 18 15 20 20 19 18 18 18 19 16 16
2 2 3 4 3 2 3 3 4 4 4 5 7 8 7 4 4 3 8 12 11 12 9 11 8 7 15 23 24 23 24 24 23 23 23 22 21 21 19 20 21 20 19 18 17 18 18 17 16
1 2 3 1 2 3 1 2 4 4 6 8 5 8 5 9 8 7 11 13 12 12 11 8 10 5 9 23 26 26 26 25 24 24 24 20 21 20 22 21 21 20 18 16 16 18 17 16 17
0 1 4 3 3 0 3 0 3 8 8 5 3 6 6 5 5 11 16 15 15 10 10 10 8 8 7 18 24 28 28 26 25 25 23 22 21 22 22 22 20 19 18 15 15 16 16 16 16
1 2 3 4 4 4 2 3 2 7 13 12 13 16 17 18 17 17 17 14 11 10 9 9 8 7 6 13 22 25 26 27 25 25 24 22 22 23 23 23 22 20 17 15 13 14 15 16 15
2 3 1 2 2 3 5 8 10 7 14 19 16 18 17 19 17 15 15 14 14 14 13 10 10 8 8 8 18 24 25 24 24 24 24 23 21 23 23 20 21 19 18 16 14 14 14 17 14
1 2 1 4 8 7 10 11 9 10 13 12 14 16 16 17 17 16 17 18 18 16 12 12 12 10 7 5 12 14 17 19 22 26 25 24 21 19 20 16 18 17 17 17 15 14 15 11 12
4 5 6 4 5 6 12 9 12 14 19 19 18 17 17 19 18 18 17 18 18 17 16 14 13 12 9 8 4 9 9 16 14 20 26 18 13 15 17 16 19 17 18 16 17 15 14 12 12
7 6 6 10 13 15 15 15 13 15 14 13 15 17 17 17 19 19 17 17 18 18 17 16 14 13 11 9 5 8 10 10 18 20 24 20 13 12 16 16 18 17 19 17 15 14 13 12 12
3 10 14 12 14 9 9 6 1 4 3 13 15 16 15 16 18 20 19 18 18 17 18 16 16 15 14 13 10 9 9 16 18 19 21 22 20 12 11 11 12 16 18 18 16 13 10 9 11
7 13 13 5 2 3 2 7 9 9 9 14 16 16 16 17 17 18 19 18 19 17 17 18 16 17 16 15 13 9 8 14 12 16 27 22 22 19 16 13 12 15 19 19 17 15 13 8 10
7 6 4 4 4 1 4 6 5 7 14 16 17 18 19 21 20 20 20 19 19 19 18 18 15 17 18 16 13 10 11 10 13 17 22 25 23 21 16 10 11 17 18 17 11 11 10 9 9
3 4 6 8 7 1 4 13 7 10 12 15 16 18 20 21 22 22 22 19 19 20 19 18 17 18 19 16 13 13 15 14 12 17 16 22 23 22 15 11 13 17 11 10 11 11 11 10 9
5 7 8 8 2 11 13 13 14 9 10 14 17 19 19 22 25 25 26 23 18 19 19 18 15 17 18 13 13 12 10 9 12 12 11 21 21 23 17 12 13 16 11 10 11 12 10 9 9
6 6 8 14 9 9 8 15 16 8 13 15 19 19 18 19 23 25 25 22 20 19 20 20 18 17 13 11 12 11 12 11 11 12 16 21 23 24 15 11 12 11 12 14 14 12 13 9 9
6 10 12 9 6 10 11 13 8 5 12 15 19 18 18 21 24 27 18 18 16 18 20 19 20 18 14 11 11 11 11 11 12 12 16 21 21 21 14 14 14 16 11 15 15 14 10 9 10
6 10 10 9 11 5 8 6 7 11 13 19 22 19 19 20 22 21 23 11 7 13 16 17 18 17 16 17 10 9 8 10 11 13 12 14 18 21 18 15 14 16 12 11 14 14 15 10 9
11 7 6 6 7 1 6 1 3 16 18 21 23 22 21 21 22 20 18 8 6 9 11 14 16 16 16 18 14 18 14 11 9 10 10 13 19 20 20 16 15 14 12 13 13 12 12 11 10
6 7 9 7 6 5 3 3 4 14 21 24 24 23 22 21 21 21 17 18 7 6 9 11 13 15 16 17 18 14 17 13 10 9 14 14 15 17 17 15 15 14 12 12 14 14 14 9 10
7 3 4 3 2 3 2 2 3 10 15 20 21 23 22 22 22 19 17 18 15 9 9 8 13 15 16 14 20 19 19 16 10 11 8 9 10 11 14 16 14 14 14 13 12 14 16 13 11
6 2 2 3 3 2 2 3 2 8 12 15 18 21 22 21 20 19 21 17 16 18 6 6 12 13 13 11 16 14 19 18 13 12 11 13 11 10 14 15 13 10 12 13 10 10 11 13 12
3 3 3 2 1 2 1 1 1 3 8 12 14 17 19 21 19 20 22 20 19 17 12 2 1 2 10 12 12 12 22 13 14 16 13 9 11 12 15 14 13 11 11 10 9 7 7 10 9
1 1 2 2 2 4 2 2 4 3 9 13 15 16 16 18 19 19 19 15 16 16 14 5 4 3 6 8 10 8 7 8 7 8 10 11 9 9 12 13 12 12 11 10 6 5 7 7 9
3 2 2 1 3 2 2 3 0 5 10 12 14 15 15 14 17 18 17 18 16 16 15 14 11 8 4 10 9 8 10 10 10 10 8 11 10 9 10 10 11 10 8 8 10 10 10 8 10
1 1 2 1 4 3 3 2 1 3 6 9 11 12 14 15 14 14 15 16 16 14 15 14 13 10 9 9 7 6 6 8 8 7 7 9 9 10 13 13 11 12 12 12 10 10 10 10 11
1 1 0 2 1 2 4 2 1 1 5 5 8 10 11 13 14 13 14 15 15 15 15 15 14 12 13 11 12 10 9 9 9 5 4 8 8 8 9 11 9 9 9 10 12 12 9 10 10
Wind_Direction
325 331 307 187 198 238 214 210 250 169 197 79 322 234 224 297 217 25 6 7 346 344 278 208 198 183 175 168 167 160 159 161 160 160 159 158 158 157 156 157 158 155 149 140 128 117 114 112 109
27 305 206 168 238 216 198 203 208 154 34 316 255 247 247 252 63 89 87 356 2 352 333 232 191 186 181 172 167 165 161 164 162 160 165 163 165 162 160 160 156 149 149 134 121 116 116 116 118
97 19 194 199 230 244 228 183 193 197 352 337 255 261 279 128 94 54 24 357 15 8 3 334 192 193 184 181 170 167 167 166 162 163 166 168 168 168 167 165 162 150 136 128 121 121 121 125 124
154 154 133 231 220 324 350 92 89 187 185 345 337 256 235 303 17 38 16 356 358 14 4 1 336 201 191 183 175 171 171 169 166 160 166 170 170 171 170 169 145 138 134 130 132 130 129 128 126
40 173 181 210 176 256 248 316 262 284 283 219 336 250 269 211 295 314 359 353 350 359 354 360 10 256 204 187 180 177 174 170 164 162 170 174 173 169 168 162 138 136 134 135 141 140 135 131 129
111 276 208 221 180 200 239 270 276 272 296 306 287 284 260 311 272 298 324 336 340 332 348 341 351 339 241 199 185 180 177 171 165 168 175 183 180 171 169 147 142 140 140 142 147 148 141 136 135
41 232 150 194 252 247 194 337 277 322 291 301 305 273 268 278 259 272 317 319 318 313 315 315 324 338 278 223 201 185 178 174 171 174 180 183 179 169 164 150 148 145 145 144 146 148 146 141 139
63 250 158 181 192 125 94 32 324 304 301 315 256 253 268 256 276 291 306 304 301 296 288 294 306 309 274 225 212 201 186 175 174 178 182 180 177 173 163 154 152 150 150 151 154 153 150 145 143
232 181 207 176 189 116 138 284 302 299 277 277 246 258 273 290 293 295 297 295 286 281 272 276 280 282 274 252 217 204 193 176 176 178 182 178 183 174 166 174 158 154 156 157 161 160 149 140 141
247 237 180 134 188 274 275 278 303 282 286 271 270 264 271 279 281 277 278 279 278 279 274 267 266 260 250 242 218 212 202 192 182 187 184 185 182 182 184 170 169 160 162 163 160 160 149 161 153
190 282 145 248 253 278 279 281 270 261 274 284 307 301 298 291 280 274 271 271 271 273 271 262 262 255 236 227 227 206 203 195 192 188 188 192 182 174 178 170 175 178 173 177 172 166 178 190 168
266 257 247 280 259 273 265 288 273 255 268 294 297 294 290 285 279 273 264 260 260 261 260 264 255 248 236 231 221 208 195 197 193 193 190 190 180 179 173 174 180 183 186 189 188 184 185 187 185
258 273 261 260 272 270 275 265 263 274 276 285 295 292 286 282 277 275 270 264 260 255 250 246 236 237 231 217 198 210 206 198 195 192 193 184 182 184 179 183 181 185 186 191 193 191 187 187 187
320 286 289 283 276 260 258 279 283 242 262 294 303 300 300 292 284 283 276 264 254 247 250 242 239 228 226 222 214 203 202 202 197 193 196 188 184 183 188 185 185 188 189 193 192 194 191 188 186
293 293 298 253 231 280 243 253 224 286 290 300 314 311 308 302 298 284 279 268 259 249 241 242 228 232 223 218 221 213 194 198 197 196 196 188 180 184 189 187 187 189 190 192 195 193 195 194 193
261 265 294 66 343 77 264 265 261 332 328 317 320 320 317 311 304 296 285 277 256 248 239 233 229 216 220 225 215 217 205 200 196 195 197 188 182 182 185 190 192 189 191 190 191 190 193 197 196
188 285 290 317 325 330 267 293 298 317 342 333 333 327 318 312 307 301 293 277 262 242 236 231 220 224 212 219 224 220 212 197 197 193 192 189 179 181 180 192 194 182 193 198 193 193 197 197 198
306 295 281 281 225 309 289 284 307 314 340 336 341 326 321 316 307 302 290 279 261 244 231 229 221 213 223 209 218 216 227 199 200 195 186 182 181 183 187 191 195 185 188 198 195 191 199 204 199
262 263 270 278 297 283 279 303 299 333 342 338 338 332 322 313 310 301 289 278 261 238 234 215 210 209 206 214 205 211 209 212 195 200 190 186 185 185 194 191 180 187 194 196 196 194 192 202 204
287 287 283 292 280 296 294 298 315 41 346 344 341 335 327 322 322 323 305 279 239 229 223 219 213 203 209 207 216 205 212 208 202 185 190 185 185 185 191 187 187 188 194 200 197 195 192 197 196
289 304 302 291 313 271 293 248 150 6 358 349 353 341 336 335 327 330 322 308 246 218 217 217 214 211 209 204 207 211 198 202 196 192 185 184 182 182 189 195 194 193 193 195 195 193 191 191 191
304 7 313 293 309 328 349 268 138 359 354 354 357 346 337 337 336 335 325 295 261 236 225 224 220 217 214 208 207 204 203 202 202 181 175 181 185 189 191 194 196 193 194 191 193 194 196 193 194
318 279 281 294 271 283 170 248 89 4 353 351 354 342 338 342 344 342 6 5 305 240 217 215 221 219 215 211 208 206 207 208 184 183 183 186 192 190 189 192 194 195 194 195 191 189 195 198 206
312 255 212 224 253 231 40 240 62 11 348 344 349 342 339 344 343 348 359 1 354 311 224 216 223 223 217 216 212 203 200 201 193 192 186 186 187 188 192 191 193 193 194 190 196 197 192 194 206
358 300 167 169 215 58 26 249 54 5 4 5 349 337 343 346 350 351 1 356 346 339 242 238 220 211 209 217 210 199 199 196 184 181 189 185 190 189 193 188 191 193 195 196 185 190 204 197 198
349 338 348 2 356 19 230 355 79 28 20 16 9 341 347 349 349 354 355 350 346 353 14 33 124 352 199 191 191 190 194 176 191 189 183 198 199 192 187 182 182 180 182 181 181 193 198 214 209
31 44 3 308 226 268 350 176 202 242 12 15 12 353 351 349 349 348 347 349 348 354 357 321 101 104 183 197 187 199 163 147 158 175 188 185 176 176 174 172 170 167 174 176 185 183 205 214 218
351 13 246 237 290 283 198 270 291 344 357 0 8 360 356 348 348 349 351 349 349 358 352 4 6 30 102 177 168 179 179 175 175 170 162 177 172 155 163 169 168 157 165 168 178 205 212 208 224
107 90 82 270 311 310 305 105 132 350 352 352 359 358 354 355 354 350 352 352 353 4 3 3 10 21 50 84 110 130 158 166 174 157 172 187 183 177 184 186 181 170 175 187 198 209 212 214 221
332 65 142 278 151 340 314 310 133 34 344 340 349 351 354 2 356 2 5 6 4 7 5 8 4 29 42 69 80 85 86 78 71 73 166 156 166 154 173 164 156 143 154 165 191 191 185 205 222